Wind_Speed
16 16 16 16 16 16 16 17 17 17 17 18 18 18 18 19 19 19 19 20 20 21 21 21 22 23 23 24 25 25 25 26 26 26 26 26 26 26
18 18 19 19 20 19 19 20 20 20 21 21 22 22 22 22 23 23 24 24 24 24 25 25 25 26 26 27 28 28 28 29 30 30 30 30 30 30
20 21 22 22 22 23 22 22 23 23 24 25 25 26 26 26 26 27 27 28 28 29 29 29 29 30 30 31 32 32 33 33 34 34 35 35 35 35
23 23 24 24 24 24 25 25 25 26 26 27 28 28 29 29 30 31 31 31 32 32 33 33 34 34 35 35 36 36 37 37 38 38 38 38 39 39
24 25 25 26 26 26 27 27 27 28 28 29 30 30 31 32 33 34 35 35 35 36 37 37 38 39 39 39 40 40 40 41 41 42 42 42 42 42
26 26 27 27 28 28 28 28 28 28 29 30 32 33 34 34 35 35 37 38 39 40 41 41 42 43 43 44 44 44 45 45 45 45 45 45 45 45
26 27 28 28 28 28 28 29 30 31 31 32 33 34 35 36 36 37 38 40 41 42 43 44 46 46 47 48 48 48 49 49 49 49 49 49 50 50
27 28 28 29 28 28 29 31 32 33 34 34 35 36 37 38 39 40 40 41 43 44 45 46 48 49 50 51 52 51 52 53 53 53 53 53 53 53
28 28 29 30 30 31 32 34 34 35 36 37 38 39 40 42 42 43 44 46 47 48 49 50 51 53 54 55 56 56 56 57 58 58 58 57 57 57
29 29 30 31 32 33 34 35 35 37 38 39 40 42 43 44 46 47 48 50 51 52 53 55 56 57 58 60 60 60 61 61 62 62 62 62 62 61
30 31 31 33 34 35 36 38 39 40 40 42 43 45 47 48 49 51 52 54 55 56 58 59 60 60 61 63 64 64 65 66 66 66 66 66 66 66
31 32 33 34 35 37 38 39 41 42 44 45 47 48 50 52 53 55 56 57 59 60 61 62 63 64 64 65 66 67 68 69 70 70 69 69 69 69
32 33 35 36 38 39 40 42 43 45 47 49 50 52 54 55 57 58 59 61 62 63 63 64 65 66 66 66 66 67 68 69 69 70 70 70 70 71
34 36 37 38 40 41 42 44 46 48 50 52 54 55 57 58 59 61 62 63 64 64 65 65 65 66 66 66 66 67 67 67 67 67 67 67 67 67
36 37 38 40 42 43 45 47 49 51 53 55 56 57 58 59 59 60 61 62 63 64 65 65 65 65 66 66 65 65 65 64 64 63 61 61 62 63
39 39 40 42 44 46 48 50 51 53 54 55 56 56 57 57 58 59 60 61 62 63 64 64 64 63 62 61 61 60 59 58 57 56 55 55 56 56
40 41 42 44 46 47 49 50 51 52 53 54 55 55 55 56 57 58 58 59 59 59 59 59 59 57 56 55 54 53 51 50 50 50 49 49 49 49
41 42 44 45 47 48 49 51 51 52 53 53 54 54 55 56 57 56 55 55 54 54 53 52 51 50 49 48 47 46 45 44 43 44 43 43 43 44
41 43 44 46 47 48 49 50 51 51 52 53 53 53 54 53 53 52 51 50 50 49 48 47 45 43 41 41 41 41 40 38 38 38 38 37 37 38
42 43 44 46 47 48 49 50 50 50 50 50 50 50 50 49 48 48 47 46 45 44 42 41 39 38 36 36 36 36 37 35 34 33 32 33 32 33
43 44 45 46 46 47 47 47 47 47 47 47 46 46 45 45 44 43 42 41 40 39 37 37 36 35 34 33 32 32 33 32 31 29 28 28 27 27
42 43 43 43 43 43 43 43 43 43 43 43 42 42 41 41 39 38 38 37 36 35 34 34 33 32 31 30 29 29 28 28 27 27 26 25 24 23
40 40 40 40 39 40 40 40 40 40 39 39 39 39 38 37 36 36 35 34 33 33 32 31 30 30 29 28 27 26 26 25 25 25 25 24 23 22
Wind_Direction
256 259 263 265 267 269 271 271 272 273 275 276 277 277 278 279 279 279 278 277 276 276 276 276 275 274 274 273 273 273 273 273 272 272 272 272 272 272
258 261 265 267 268 268 270 271 271 272 273 274 275 275 276 277 277 277 277 277 276 275 275 275 275 274 275 275 274 274 273 273 272 272 271 270 270 270
260 263 266 268 269 269 269 271 273 274 274 274 275 275 275 276 277 276 277 276 276 275 276 276 275 275 276 276 276 275 274 273 273 273 272 272 272 271
263 266 267 269 270 270 270 270 271 273 274 275 275 274 274 275 275 276 276 276 276 276 276 275 275 276 276 276 275 275 274 273 273 272 272 272 272 272
265 266 268 270 272 272 272 272 273 274 275 275 275 274 275 276 275 276 276 276 276 276 276 276 276 276 276 276 275 275 274 274 273 273 273 273 272 271
267 268 269 270 271 272 273 272 273 274 275 276 276 276 276 276 276 275 275 276 276 276 276 276 276 276 276 276 275 275 275 274 274 273 273 273 272 271
269 270 271 273 273 273 275 274 274 276 277 278 277 277 278 277 278 278 278 277 277 276 276 276 276 276 276 276 276 276 275 274 274 273 273 273 272 272
271 273 274 274 274 274 275 276 277 278 279 279 278 278 279 279 280 279 278 278 278 278 277 277 277 277 277 277 276 276 276 275 274 273 273 272 272 272
271 273 274 273 274 274 274 275 277 279 279 280 281 281 281 281 281 280 280 279 279 279 279 279 279 279 278 277 277 276 275 275 274 273 273 272 272 271
272 275 276 276 276 276 276 277 278 280 280 281 283 283 282 282 282 282 282 282 282 281 280 279 279 278 278 278 277 277 276 275 275 275 274 273 272 271
273 276 277 278 277 277 278 279 281 281 281 282 283 284 284 284 283 283 283 283 283 282 282 282 280 279 278 278 278 277 276 275 275 275 274 273 272 271
275 276 277 279 280 281 282 282 282 283 283 284 285 286 286 286 286 285 285 284 284 284 283 283 282 281 280 279 278 278 277 276 276 275 274 273 272 271
276 277 279 280 281 282 283 283 285 286 287 287 287 287 288 287 287 286 286 286 285 285 284 284 283 282 282 280 279 279 278 277 276 276 275 274 273 272
280 281 281 282 284 284 284 285 286 287 288 288 289 289 288 288 288 288 287 287 286 286 286 285 285 284 283 283 282 280 280 279 278 277 276 275 274 273
282 283 285 285 286 287 287 287 288 288 289 290 290 290 290 289 289 289 289 289 288 288 287 287 287 286 286 285 284 282 281 280 279 278 277 276 275 274
284 286 286 287 288 288 289 289 290 291 292 292 292 292 292 291 291 291 290 290 290 290 290 290 289 288 288 287 286 285 284 282 281 279 278 278 277 275
288 289 290 291 292 292 292 293 293 294 294 293 294 294 294 294 294 293 293 293 292 292 292 292 291 291 291 290 289 287 286 285 284 282 281 280 278 276
291 292 293 293 294 294 295 295 295 295 295 295 296 296 296 296 296 296 295 295 295 294 294 293 292 291 292 292 291 290 289 289 288 286 283 281 279 278
294 295 295 295 296 297 297 298 298 298 298 298 299 299 299 299 298 298 298 298 297 297 296 295 294 293 292 291 292 292 292 292 290 288 286 284 282 280
296 297 298 298 299 299 299 300 300 301 301 301 302 302 302 301 301 300 300 300 300 299 298 298 297 296 295 294 293 293 294 295 293 291 289 288 286 284
298 299 300 301 301 302 302 303 304 304 304 304 304 304 304 304 304 304 303 303 302 301 300 299 299 299 298 297 296 296 297 297 296 295 293 291 290 287
301 302 303 304 305 306 306 307 307 308 308 307 307 307 308 308 307 307 307 306 305 303 302 301 301 300 300 299 298 297 298 299 298 298 297 295 293 291
305 306 307 308 309 309 310 311 311 311 311 310 310 311 311 311 311 310 309 308 308 306 305 303 302 302 302 301 299 299 300 300 299 299 298 299 298 296
Height
5869 5870 5870 5870 5870 5870 5870 5870 5870 5870 5869 5869 5868 5868 5867 5867 5866 5866 5865 5865 5864 5863 5862 5862 5861 5860 5860 5859 5858 5858 5857 5857 5856 5856 5855 5854 5854 5853
5865 5866 5866 5866 5866 5866 5866 5866 5866 5865 5864 5864 5863 5863 5862 5862 5861 5860 5860 5859 5858 5857 5856 5855 5855 5854 5853 5852 5852 5851 5850 5850 5849 5848 5848 5847 5846 5846
5861 5861 5861 5862 5861 5861 5861 5861 5860 5860 5859 5858 5858 5857 5856 5856 5855 5854 5853 5852 5851 5850 5849 5848 5847 5846 5846 5845 5844 5843 5842 5841 5840 5840 5839 5839 5838 5837
5855 5855 5856 5856 5856 5856 5855 5855 5854 5854 5853 5852 5851 5850 5849 5848 5848 5847 5846 5845 5843 5842 5841 5840 5839 5838 5837 5836 5835 5833 5832 5831 5830 5830 5829 5829 5828 5827
5849 5849 5850 5850 5849 5849 5849 5848 5847 5847 5846 5845 5844 5843 5842 5841 5840 5839 5837 5836 5835 5833 5832 5831 5829 5828 5827 5825 5824 5823 5822 5821 5820 5819 5818 5817 5816 5816
5843 5843 5843 5843 5842 5842 5841 5841 5840 5839 5838 5837 5836 5835 5833 5832 5831 5830 5828 5826 5825 5823 5822 5820 5818 5817 5815 5814 5813 5811 5810 5809 5808 5807 5806 5805 5804 5803
5837 5837 5836 5836 5835 5834 5834 5833 5832 5831 5830 5829 5827 5826 5824 5823 5821 5820 5818 5816 5814 5812 5810 5808 5807 5805 5803 5801 5800 5798 5797 5795 5794 5793 5792 5792 5791 5790
5830 5830 5829 5828 5827 5826 5826 5825 5824 5822 5821 5820 5818 5816 5814 5813 5811 5809 5807 5805 5803 5801 5798 5796 5794 5791 5789 5787 5786 5784 5782 5781 5780 5778 5777 5776 5776 5775
5823 5822 5821 5820 5820 5818 5817 5816 5815 5813 5812 5810 5808 5806 5804 5802 5799 5797 5794 5792 5790 5788 5786 5783 5780 5777 5774 5772 5770 5768 5766 5765 5763 5762 5760 5760 5759 5759
5815 5814 5814 5812 5811 5810 5809 5807 5805 5804 5802 5800 5797 5794 5792 5789 5787 5784 5782 5779 5776 5773 5771 5769 5766 5763 5759 5755 5753 5751 5748 5746 5745 5743 5742 5741 5741 5740
5808 5807 5805 5804 5803 5801 5799 5797 5795 5793 5790 5788 5785 5782 5779 5776 5773 5771 5767 5764 5761 5757 5754 5751 5748 5745 5742 5738 5734 5731 5729 5727 5725 5723 5722 5721 5720 5720
5800 5798 5797 5795 5793 5791 5789 5786 5784 5781 5779 5776 5772 5769 5766 5762 5759 5755 5752 5748 5744 5741 5737 5733 5729 5726 5724 5720 5715 5711 5708 5705 5703 5701 5700 5698 5698 5697
5791 5789 5788 5785 5783 5781 5778 5776 5773 5770 5766 5763 5759 5755 5751 5747 5743 5739 5735 5731 5726 5722 5718 5714 5710 5705 5702 5699 5696 5690 5686 5683 5681 5678 5676 5675 5674 5673
5782 5780 5778 5776 5773 5770 5767 5764 5761 5757 5753 5749 5745 5740 5736 5731 5726 5721 5717 5712 5707 5703 5698 5693 5689 5685 5681 5677 5674 5670 5665 5661 5658 5656 5654 5652 5650 5649
5773 5770 5768 5765 5762 5759 5756 5752 5748 5744 5739 5735 5730 5725 5720 5715 5710 5705 5699 5693 5688 5682 5678 5673 5669 5664 5659 5655 5652 5648 5644 5641 5637 5634 5633 5630 5628 5627
5762 5760 5757 5754 5751 5747 5743 5738 5734 5729 5724 5719 5714 5709 5704 5698 5693 5688 5682 5676 5670 5664 5657 5653 5648 5644 5640 5635 5630 5627 5623 5620 5617 5614 5613 5611 5608 5606
5752 5748 5745 5742 5738 5734 5729 5725 5720 5715 5710 5704 5699 5693 5688 5682 5676 5671 5665 5659 5653 5647 5641 5635 5630 5625 5621 5617 5612 5608 5605 5602 5599 5597 5595 5593 5591 5588
5741 5737 5733 5729 5725 5720 5716 5711 5706 5700 5695 5689 5684 5678 5672 5666 5660 5654 5648 5642 5636 5630 5625 5620 5616 5611 5606 5601 5597 5593 5590 5588 5585 5582 5579 5578 5576 5573
5730 5726 5721 5717 5712 5707 5702 5697 5692 5686 5680 5674 5669 5662 5656 5650 5644 5638 5632 5627 5621 5615 5609 5605 5601 5598 5594 5590 5584 5580 5578 5575 5572 5569 5566 5564 5563 5560
5718 5714 5710 5705 5700 5695 5689 5683 5678 5672 5666 5660 5654 5648 5642 5635 5630 5624 5618 5613 5608 5602 5597 5592 5588 5585 5582 5579 5575 5570 5566 5564 5561 5558 5555 5553 5551 5549
5707 5703 5698 5693 5687 5682 5676 5670 5665 5659 5653 5647 5641 5635 5629 5623 5617 5611 5606 5600 5596 5591 5586 5582 5578 5574 5571 5568 5565 5561 5557 5553 5550 5548 5546 5544 5542 5540
5696 5691 5686 5681 5675 5670 5664 5659 5653 5647 5641 5635 5629 5623 5617 5611 5606 5600 5595 5590 5585 5581 5576 5572 5568 5565 5562 5558 5555 5552 5549 5546 5542 5539 5537 5535 5533 5531
5684 5679 5674 5669 5664 5659 5653 5648 5642 5636 5630 5624 5618 5612 5606 5601 5595 5590 5586 5581 5576 5572 5568 5564 5560 5556 5553 5550 5547 5544 5542 5539 5536 5533 5530 5528 5526 5524